{"data":{"norad_id":64108,"epoch":"2026-05-25T02:15:40.347072Z","epoch_age_seconds":62971,"freshness":"FRESH","line1":"1 64108U 25110N   26145.09421698  .00011915  00000+0  39493-3 0  9992","line2":"2 64108  53.1602  31.6373 0001088  79.6853 280.4271 15.31715353 57589","mean_motion":15.31715353,"eccentricity":0.0001088,"inclination_deg":53.1602,"raan_deg":31.6373,"arg_perigee_deg":79.6853,"mean_anomaly_deg":280.4271,"bstar":0.00039493,"rev_number":5758,"period_min":94.012245629035,"perigee_km":469.9490762761,"apogee_km":471.43938195156,"semimajor_km":6848.8312291138,"source":"CELESTRAK","updated_at":"2026-05-25T13:38:20.266430Z"}}